Weather History for Belize, Belize

Change the Weather History Date:

Thursday, June 7, 2012

  Actual Average Record
Temperature  
Mean Temperature 86 °F -  
Max Temperature 90 °F 89 °F 90 °F (2012)
Min Temperature 82 °F 77 °F 75 °F (2011)
Cooling Degree Days 21    
Growing Degree Days 36 (Base 50)    
Moisture  
Dew Point 79 °F    
Average Humidity 79    
Maximum Humidity 90    
Minimum Humidity 63    
Precipitation  
Precipitation 0.00 in 0.33 in - ()
Sea Level Pressure  
Sea Level Pressure 29.82 in    
Wind  
Wind Speed 5 mph ()    
Max Wind Speed 10 mph    
Max Gust Speed -    
Visibility 8.6 miles    
Events      
Averages and records for this station are not official NWS values.
T = Trace of Precipitation, MM = Missing Value Source: Averaged Metar Reports

Daily Weather History Graph

Daily Weather History Graph

Search for Another Location

Airport:

Trip Planner

Search our weather history database for the weather conditions in past years. The results will help you decide how hot, cold, wet, or windy it might be!

Date:

Astronomy

Jun. 07, 2012 Rise Set
Actual Time 5:17 AM CST 6:26 PM CST
Civil Twilight 4:53 AM CST 6:50 PM CST
Nautical Twilight 4:25 AM CST 7:19 PM CST
Astronomical Twilight 3:56 AM CST 7:48 PM CST
Moon 9:40 PM CST (6/7) 8:32 AM CST (6/7)
Length of Visible Light 13h 56m
Length of Day
13h 08m
Waning Gibbous, 85% of the Moon is Illuminated
Jun 7
Waning Gibbous
Jun 11
Last Quarter
Jun 19
New
Jun 26
First Quarter
Jul 3
Full

Hourly Weather History & Observations

Time (CST) Temp. Heat Index Dew Point Humidity Pressure Visibility Wind Dir Wind Speed Gust Speed Precip Events Conditions
12:00 AM 83 °F - 80 °F 87% 29.83 in 12 mi East 5.8 mph - -  
3:00 AM 82 °F - 79 °F 87% 29.83 in 12 mi East 4.6 mph - -   Scattered Clouds
5:00 AM 82.4 °F 92.4 °F 78.8 °F 89% 29.80 in 6.2 mi East 5.8 mph - N/A   Mostly Cloudy
6:00 AM 82 °F - 80 °F 90% 29.83 in 12 mi Calm Calm - -  
6:00 AM 82.4 °F 92.4 °F 78.8 °F 89% 29.80 in 6.2 mi Calm Calm - N/A   Mostly Cloudy
7:00 AM 84.2 °F 96.1 °F 78.8 °F 84% 29.83 in 6.2 mi East 5.8 mph - N/A   Mostly Cloudy
8:00 AM 87.8 °F 104.9 °F 80.6 °F 79% 29.83 in 6.2 mi East 9.2 mph - N/A   Mostly Cloudy
9:00 AM 87 °F - 79 °F 72% 29.85 in 12 mi East 8.1 mph - -   Mostly Cloudy
9:00 AM 87.8 °F 102.5 °F 78.8 °F 75% 29.84 in 6.2 mi East 8.1 mph - N/A   Mostly Cloudy
10:00 AM 87.8 °F 102.5 °F 78.8 °F 75% 29.84 in 6.2 mi East 9.2 mph - N/A   Mostly Cloudy
11:00 AM 87.8 °F 102.5 °F 78.8 °F 75% 29.84 in 6.2 mi ENE 6.9 mph - N/A   Mostly Cloudy
12:00 PM 89 °F - 80 °F 67% 29.83 in 12 mi ENE 6.9 mph - -  
12:00 PM 89.6 °F 104.7 °F 78.8 °F 70% 29.82 in 6.2 mi ENE 6.9 mph - N/A   Mostly Cloudy
3:00 PM 90 °F - 79 °F 63% 29.80 in 12 mi ENE 9.2 mph - -   Scattered Clouds
4:00 PM 89.6 °F 108.2 °F 80.6 °F 75% 29.78 in 6.2 mi ENE 10.4 mph - N/A   Scattered Clouds
5:00 PM 87.8 °F 104.9 °F 80.6 °F 79% 29.78 in 6.2 mi ENE 10.4 mph - N/A   Scattered Clouds
6:00 PM 86 °F - 80 °F 78% 29.80 in 12 mi ENE 9.2 mph - -  
6:00 PM 86.0 °F 101.9 °F 80.6 °F 84% 29.79 in 6.2 mi ENE 9.2 mph - N/A   Partly Cloudy
9:00 PM 83 °F - 79 °F 86% 29.83 in 12 mi East 4.6 mph - -   Scattered Clouds